Location: Unspecified
(0.0000°N, 0.0000°E)
Time: 03:41:51
(UTC+00:00)

CZ-3 Stage 3 - Pass Details

Date: 25 May 2019
Orbit: 499 x 34693 km, 30.5° (Epoch: 23 June)

Event Time Altitude Azimuth Distance (km) Brightness Sun altitude
Exits shadow 23:52:30 12° 338° (NNW) 4,220 6.4 -69.1°
Maximum altitude 07:08:35 54° 123° (ESE) 29,431 11.1 16.7°
Drops below altitude 10° 09:16:26 10° 128° (SE) 12,212 8.9 45.6°
Sets 09:23:02 0° 126° (SE) 11,473 8.7 47.0°
